This demonstration page uses our WeatherBlox Daily Observations layout. Learn more.

Left ArrowRight Arrow

36.17497, -115.13722

Hourly Observations for January 23, 2016

Temp ( °F °C ) Dew Point ( °F °C ) Humidity (%) Winds ( mph kmh ) Pressure ( in mb ) Visibility ( mi km ) Precip ( " mm )
12:53 am 00:53 Clear 45 7.2 26 -3.3 48 48 NW 3 6 30.11 1020 10 16 N/A
1:53 am 01:53 Clear 44 6.7 26 -3.3 49 49 NNW 6 9 30.10 1019 10 16 N/A
2:53 am 02:53 Clear 43 6.1 25 -3.9 49 49 N 3 6 30.10 1019 10 16 N/A
3:53 am 03:53 Clear 43 6.1 27 -2.8 53 53 NNW 3 6 30.10 1019 10 16 N/A
4:53 am 04:53 Clear 43 6.1 28 -2.2 56 56 WNW 3 6 30.09 1019 10 16 N/A
5:53 am 05:53 Clear 43 6.1 28 -2.2 56 56 N N/A 30.09 1019 10 16 N/A
6:53 am 06:53 Sunny 43 6.1 28 -2.2 56 56 N N/A 30.09 1019 10 16 N/A
7:53 am 07:53 Sunny 43 6.1 28 -2.2 56 56 E 5 7 30.08 1019 10 16 N/A
8:53 am 08:53 Sunny 46 7.8 29 -1.7 51 51 N N/A 30.09 1019 10 16 N/A
9:53 am 09:53 Sunny 50 10 26 -3.3 39 39 N N/A 30.08 1019 10 16 N/A
10:53 am 10:53 Sunny 52 11.1 26 -3.3 37 37 N N/A 30.06 1018 10 16 N/A
11:53 am 11:53 Sunny 53 11.7 26 -3.3 35 35 SE 5 7 30.02 1017 10 16 N/A
12:53 pm 12:53 Sunny 54 12.2 25 -3.9 33 33 ESE 3 6 29.98 1015 10 16 N/A
1:53 pm 13:53 Sunny 55 12.8 25 -3.9 31 31 ESE 5 7 29.95 1014 10 16 N/A
2:53 pm 14:53 Sunny 56 13.3 26 -3.3 32 32 ESE 7 11 29.93 1014 10 16 N/A
3:53 pm 15:53 Sunny 56 13.3 25 -3.9 30 30 N N/A 29.93 1013 10 16 N/A
4:53 pm 16:53 Sunny 55 12.8 26 -3.3 33 33 E 7 11 29.91 1013 10 16 N/A
5:53 pm 17:53 Clear 53 11.7 26 -3.3 35 35 N N/A 29.92 1013 10 16 N/A
6:53 pm 18:53 Clear 51 10.6 26 -3.3 38 38 E 3 6 29.91 1013 10 16 N/A
7:53 pm 19:53 Clear 48 8.9 25 -3.9 41 41 SE 6 9 29.90 1013 10 16 N/A
8:53 pm 20:53 Partly Cloudy 48 8.9 25 -3.9 41 41 SE 7 11 29.91 1013 10 16 N/A
9:53 pm 21:53 Clear 49 9.4 28 -2.2 44 44 NNW 22 35 29.93 1014 10 16 N/A
10:09 pm 22:09 Clear 50 10 35 1.7 57 57 N 25 41 29.88 1012 10 16 N/A
10:53 pm 22:53 Clear 50 10 34 1.1 54 54 NNW 26 43 29.93 1013 10 16 N/A
11:53 pm 23:53 Clear 50 10 33 0.6 52 52 NW 21 33 29.93 1014 10 16 N/A

Powered by AerisWeather